Location: Vibo Valentia
(38.6670°N, 16.1000°E)
Time: 22:31:17
(UTC+01:00)

STARLINK-1353 - Pass Details

Date: 07 October 2020
Orbit: 530 x 533 km, 53.0° (Epoch: 25 October)

Event Time Altitude Azimuth Distance (km) Brightness Sun altitude
Exits shadow 06:20:16 - 318° (NW) 2,611 6.7 -8.0°
Reaches altitude 10° 06:23:09 10° 342° (NNW) 1,786 6.0 -7.5°
Maximum altitude 06:25:29 15° 17° (NNE) 1,507 6.1 -7.0°
Drops below altitude 10° 06:27:49 10° 53° (NE) 1,784 7.1 -6.6°
Sets 06:30:53 0° 78° (ENE) 2,674 9.0 -6.0°
